CYGFM07

Last updated on Thu Nov 21 2024 00:02:20 GMT+0000 (Coordinated Universal Time)

1 41890U 16078G 24325.53356490 .00019176 00000+0 56516-3 0 9994 2 41890 34.9516 9.1960 0011314 208.5151 151.4948 15.34061861440150
UTC large
Height (km)
Speed (km/s)
/
Latitude / Longitude
Inclination (degrees)
Orbital Period (minutes)
Azimuth
Elevation
Range (km)
Doppler Factor

Next 0 passes for location: London (51.5072 / 0.1276)

Sorry there are no passes over London.